Temperature
17 17 17 17 17 17 17 16 16 16 16 15 15 15 15 15 15 15 15 14 14 14 14 14 14 14 14 14 13 13 13 13 13 12 12 12 12 12 12 12 12 12 12
16 17 17 17 17 17 17 17 16 16 16 16 15 15 15 15 15 15 15 15 14 14 14 14 14 14 14 14 13 13 13 13 13 12 12 11 12 12 12 12 12 12 12
16 16 16 17 17 17 16 16 16 16 16 15 15 15 15 15 15 15 15 15 14 14 14 14 14 14 13 13 13 13 13 12 12 12 11 11 11 11 11 11 11 11 11
15 15 16 16 16 16 16 16 16 15 15 15 15 15 15 15 15 14 14 14 14 14 14 14 14 14 13 13 13 13 13 12 12 12 11 11 11 10 10 10 11 11 11
15 15 15 15 15 15 15 15 15 15 15 15 14 14 14 14 14 14 14 14 14 13 13 13 13 13 13 13 12 12 12 12 11 11 11 11 10 10 10 10 10 10 10
15 14 14 14 14 14 14 14 14 14 14 13 13 13 13 13 13 13 13 13 13 13 12 12 12 12 12 12 12 12 11 11 11 11 10 10 10 10 9 9 9 9 9
14 13 13 13 13 13 13 13 13 12 12 12 12 12 12 12 12 12 12 12 12 11 11 11 11 11 11 11 11 11 10 10 10 10 10 9 9 9 9 9 8 8 8
12 12 13 12 12 12 12 12 12 11 11 11 11 11 11 11 11 11 10 10 10 10 10 10 10 10 10 10 10 10 10 9 9 9 9 9 9 9 8 8 8 8 7
11 11 11 11 11 11 11 11 11 11 10 10 10 10 10 10 9 9 9 9 9 9 9 9 9 9 9 9 9 9 9 9 8 8 8 8 8 8 8 7 7 7 6
10 10 10 11 11 10 10 10 10 10 9 9 9 9 9 8 8 8 8 8 8 8 8 8 8 8 8 8 8 8 8 8 8 7 7 7 7 7 7 7 6 6 6
10 10 10 10 10 10 10 10 9 9 8 8 8 8 8 7 7 7 7 7 7 7 7 7 7 7 7 7 7 7 7 7 7 7 7 7 6 6 6 6 6 5 5
10 10 10 10 10 10 9 9 8 8 8 7 7 7 7 6 6 6 6 6 6 6 6 6 6 6 6 7 7 7 6 6 6 6 6 5 5 5 5 5 5 5 5
10 10 10 10 10 9 9 8 8 7 7 6 6 6 6 6 5 5 5 5 5 5 5 6 6 6 6 6 6 6 6 5 5 5 5 5 4 4 4 4 4 4 4
10 10 10 10 9 9 8 8 7 6 6 6 5 5 5 5 5 5 5 5 5 5 5 5 5 5 5 5 5 5 5 4 4 4 4 3 3 3 3 3 3 3 2
10 10 10 10 9 8 8 7 6 6 5 5 4 4 4 4 4 4 4 4 3 4 4 4 4 4 4 4 4 3 3 3 3 2 2 2 2 2 2 2 1 1 1
11 11 10 10 9 8 8 7 6 5 4 4 3 3 3 3 3 2 2 2 2 3 3 3 3 3 3 3 3 3 2 2 2 1 1 1 1 1 0 0 0 1 0
11 11 10 10 9 8 7 6 5 4 4 3 3 2 2 2 2 1 1 1 1 2 2 2 2 2 2 2 2 2 1 1 1 1 0 0 0 -0 -0 -0 -0 -0 -1
11 11 10 10 9 8 6 5 4 4 3 2 2 2 1 1 1 0 1 1 1 1 1 1 1 1 1 1 1 1 1 1 0 0 -0 -0 -1 -1 -1 -1 -1 -1 -2
11 10 10 9 8 7 6 5 4 3 3 2 2 1 1 1 0 0 0 0 1 1 1 1 1 1 1 1 1 0 0 0 -0 -0 -1 -1 -1 -2 -2 -2 -2 -3 -3
10 10 9 8 7 6 6 5 4 3 3 2 2 1 1 1 1 1 0 0 1 1 0 0 0 0 0 0 0 0 -0 -0 -1 -1 -2 -2 -2 -3 -3 -3 -3 -4 -4
9 9 8 8 7 6 5 5 4 4 3 2 2 1 1 1 1 1 1 1 0 0 0 0 0 0 -0 -0 -0 -0 -1 -1 -1 -2 -2 -3 -3 -3 -4 -4 -4 -5 -5
8 8 7 7 6 6 5 5 4 3 3 3 2 2 1 1 1 1 1 0 0 0 0 0 -0 -0 -0 -0 -1 -1 -1 -1 -2 -2 -3 -3 -4 -4 -4 -5 -5 -5 -5
7 7 7 6 6 5 5 5 4 3 3 3 2 2 2 1 1 1 1 0 0 0 0 0 -0 -0 -0 -1 -1 -1 -2 -2 -2 -3 -3 -4 -4 -4 -5 -5 -5 -5 -6
7 7 6 6 6 5 5 4 4 3 3 3 3 2 2 2 1 1 1 0 0 0 0 0 -0 -0 -0 -1 -1 -1 -2 -2 -3 -3 -3 -4 -4 -5 -5 -5 -5 -6 -6
6 6 6 6 5 5 5 4 4 3 3 3 3 2 2 2 1 1 1 1 0 0 -0 -0 -0 -0 -0 -1 -1 -1 -2 -2 -2 -3 -3 -4 -4 -5 -5 -5 -6 -6 -6
6 6 6 5 5 5 5 4 4 3 3 3 3 2 2 2 1 1 1 1 0 0 -0 -0 -0 -0 -1 -1 -1 -2 -2 -2 -3 -3 -3 -4 -4 -5 -5 -5 -6 -6 -6
Wind_Speed
5 1 0 2 3 3 3 3 3 2 3 3 3 3 3 3 3 5 8 9 10 11 11 8 7 7 8 9 9 7 8 8 4 3 5 5 6 8 8 7 8 11 16
4 3 1 2 3 4 4 3 3 3 2 2 2 2 1 1 2 2 3 5 6 8 8 7 6 6 7 8 8 8 5 5 5 4 3 4 4 6 8 6 7 8 9
9 7 4 3 4 4 4 4 4 4 3 2 2 2 2 1 1 1 1 2 4 4 5 6 6 5 7 8 9 8 8 7 5 6 5 4 5 3 3 4 5 6 5
8 7 6 5 5 4 4 5 5 5 4 3 3 2 2 1 1 1 2 3 4 3 4 4 4 4 5 7 7 7 7 7 7 5 7 7 4 4 4 2 2 4 5
10 9 8 6 5 4 5 5 6 7 6 5 4 3 1 0 1 2 3 3 4 4 5 4 3 3 4 5 6 5 6 6 7 5 4 6 5 5 6 6 3 2 3
10 8 7 7 5 5 5 6 7 7 6 6 5 4 2 1 2 3 3 3 3 3 5 6 4 3 3 4 5 5 5 6 6 5 5 5 4 5 6 8 5 4 3
11 11 10 8 7 6 6 6 7 6 6 6 5 4 3 2 2 2 2 3 3 3 5 5 4 4 4 4 3 3 4 4 5 5 4 5 6 4 4 5 5 4 2
10 11 11 9 8 7 7 6 6 5 5 5 5 4 4 3 2 3 2 3 2 3 5 5 5 5 5 4 3 2 2 2 2 2 2 2 2 3 3 3 3 4 3
10 9 9 8 8 7 6 6 6 5 4 4 4 5 5 4 4 4 3 3 3 3 5 5 5 5 6 5 4 3 3 2 3 2 2 1 2 1 1 1 2 3 4
8 8 8 7 6 6 5 6 6 5 4 4 4 4 4 4 4 4 5 5 5 5 5 6 6 6 6 6 5 4 5 5 5 4 5 5 3 3 3 2 1 1 2
9 8 7 7 6 6 6 6 5 5 4 4 4 5 4 4 5 5 5 5 5 5 6 6 6 7 7 7 7 7 7 7 7 7 7 7 6 5 5 4 3 3 1
7 7 8 7 6 6 6 5 5 5 4 4 5 5 4 5 5 5 5 5 6 5 6 6 7 7 8 8 8 8 8 8 8 8 8 7 6 7 6 5 5 3 3
7 7 7 7 7 7 6 5 5 5 4 5 5 5 4 5 5 5 5 5 5 6 6 7 7 7 8 8 8 8 9 9 9 8 8 7 7 8 6 6 5 4 4
8 8 8 7 7 7 6 6 5 4 5 5 5 4 4 4 4 4 5 5 5 6 6 7 7 7 8 8 8 8 9 9 9 9 8 8 7 6 6 6 5 5 5
8 10 9 8 7 7 6 6 5 5 5 5 5 4 4 4 4 4 5 5 6 6 6 6 7 6 6 7 7 7 8 8 9 8 8 8 9 9 7 6 5 5 4
11 10 9 9 9 9 8 7 6 5 5 5 5 5 5 4 4 4 5 6 6 6 6 7 7 7 7 11 11 9 7 7 7 7 7 7 9 11 12 12 10 8 5
11 11 11 11 10 10 9 8 7 6 6 6 5 5 5 5 4 5 5 5 5 6 6 6 6 7 8 12 12 12 7 7 6 6 6 5 6 8 6 9 11 11 11
10 10 9 9 8 8 8 8 7 7 6 6 6 5 5 5 5 5 5 5 4 5 5 5 5 5 7 10 10 11 7 6 6 5 5 4 4 4 5 5 6 6 6
7 7 7 8 8 9 9 9 8 7 7 7 6 6 6 6 6 5 5 4 4 4 4 4 4 4 4 7 8 8 4 4 4 4 4 3 3 5 6 5 4 4 4
4 6 7 7 9 9 9 9 8 8 7 7 6 6 6 6 6 6 4 3 4 4 3 3 3 3 3 3 5 6 3 3 2 3 4 5 4 5 4 3 2 2 2
5 7 8 8 8 9 10 9 8 8 7 7 6 6 6 6 6 5 4 4 4 3 2 1 1 1 2 3 2 4 3 2 1 1 2 3 6 5 5 3 1 2 0
6 6 7 6 7 9 9 9 8 7 7 7 7 6 6 5 5 5 5 4 4 3 2 1 2 2 2 3 3 1 1 2 2 1 2 3 6 5 5 3 3 3 3
5 5 6 6 6 8 9 9 8 8 8 8 7 6 6 5 5 6 6 4 4 3 3 3 3 3 2 3 4 3 2 1 2 2 4 4 5 4 3 4 4 3 1
5 5 6 7 7 8 8 8 8 9 9 8 8 7 7 6 5 5 5 5 5 5 5 4 4 4 3 3 3 2 2 3 2 2 3 4 4 3 3 3 3 2 2
4 5 7 7 8 8 8 8 9 10 10 9 8 7 7 7 6 6 6 6 6 6 6 5 5 4 4 5 7 4 4 4 4 2 1 0 1 2 2 2 2 2 2
3 4 6 7 7 8 9 9 10 11 11 9 9 8 7 6 6 5 5 9 9 11 12 10 7 6 7 6 6 7 7 7 6 2 2 2 3 3 3 3 3 3 3
Wind_Direction
259 280 117 119 116 107 127 143 147 142 137 142 163 184 209 214 219 225 229 230 233 231 226 233 229 216 223 230 226 227 233 239 225 238 267 263 242 239 240 234 232 234 232
230 218 171 109 117 116 110 109 112 104 117 140 147 159 167 195 215 231 235 239 245 242 234 232 233 223 227 233 229 220 226 230 190 197 238 286 290 253 241 234 236 241 234
210 202 186 150 123 116 115 111 100 91 81 98 104 80 64 31 15 351 324 315 298 279 261 252 244 235 228 237 237 226 228 242 220 200 213 241 253 284 278 244 239 239 233
200 192 184 168 147 129 110 101 93 81 68 75 98 128 157 215 272 311 312 322 327 316 303 286 269 256 246 246 246 234 229 236 243 217 223 234 236 251 288 278 269 250 241
194 188 181 165 140 122 109 100 90 75 63 65 84 103 114 213 321 336 335 339 343 351 348 329 307 282 267 262 260 252 239 236 243 230 213 230 237 233 251 272 269 280 256
189 175 159 142 127 112 102 98 90 73 61 65 66 82 92 55 11 354 344 340 339 347 358 353 346 326 305 287 275 264 253 246 245 240 218 209 211 213 226 251 249 251 257
178 168 161 156 144 128 113 101 94 79 62 64 59 59 65 67 46 356 348 350 352 351 348 353 347 339 327 313 296 278 269 256 249 245 236 224 228 216 217 241 257 251 255
178 173 167 157 147 137 126 116 107 95 75 70 61 51 51 56 46 29 21 12 356 342 344 352 355 353 347 341 331 320 309 299 276 270 258 236 240 226 221 226 240 261 257
175 167 157 150 146 141 136 131 121 106 87 79 75 58 50 51 44 32 29 19 2 356 6 8 8 7 6 5 10 22 12 22 25 20 29 34 18 14 325 254 226 239 267
161 157 154 151 146 138 128 120 118 114 99 83 76 77 57 51 47 46 38 28 17 16 19 23 24 23 20 21 34 38 36 53 44 42 54 50 33 37 32 24 5 251 243
167 163 157 150 140 133 131 126 121 115 104 93 85 78 63 55 56 53 42 35 33 32 34 33 37 37 33 32 45 47 45 57 53 49 58 53 44 48 40 39 38 32 17
167 160 155 150 150 149 145 137 132 125 119 111 99 88 74 66 61 55 46 47 48 42 43 46 51 50 47 45 52 57 55 60 58 53 57 51 51 51 43 47 46 38 28
166 160 162 168 169 164 157 150 144 137 128 119 109 95 82 76 70 64 59 58 58 54 52 57 60 57 56 57 59 66 67 66 63 59 60 54 57 56 47 48 45 34 34
180 179 183 183 177 170 164 158 151 143 137 128 121 112 101 95 89 80 73 68 65 63 61 65 69 69 66 64 66 71 72 70 64 60 60 58 61 65 58 51 42 42 46
197 196 194 186 178 172 169 164 157 152 144 138 134 130 121 112 101 92 83 76 72 70 66 67 66 71 74 71 71 70 74 73 69 58 52 54 61 68 72 68 54 53 53
210 204 195 187 185 180 175 169 165 161 152 149 148 142 134 125 116 107 99 91 81 72 68 64 62 62 70 78 81 81 71 69 67 59 47 48 49 53 57 60 58 59 61
211 203 199 194 189 183 174 173 168 159 156 155 152 151 146 137 128 120 107 96 88 80 70 62 60 63 73 80 83 84 79 73 65 58 49 48 47 53 47 51 50 45 51
208 203 193 185 175 166 162 157 155 159 160 159 158 156 150 141 133 125 115 105 97 87 76 65 58 60 72 84 87 89 80 73 62 57 57 53 28 51 68 59 47 35 33
202 192 177 165 157 160 157 154 159 162 163 165 165 161 156 150 144 135 126 115 107 95 85 76 66 59 55 83 93 94 80 68 51 36 37 44 18 32 57 68 48 27 7
148 146 140 139 153 158 155 158 166 169 174 171 166 160 157 155 152 146 132 119 119 118 110 92 69 52 16 59 99 107 99 78 47 23 11 13 12 17 44 96 67 6 330
121 130 138 150 160 158 158 167 173 182 173 159 158 158 157 157 154 146 137 136 132 131 131 121 25 346 336 0 48 123 137 136 101 28 350 334 349 355 359 28 182 284 295
124 136 144 152 157 162 167 176 186 175 158 157 161 163 162 164 163 156 155 155 155 164 186 223 268 273 293 313 309 297 171 162 163 243 272 294 326 342 348 354 325 350 65
147 151 156 161 169 176 180 188 184 163 161 166 172 174 173 175 171 172 174 174 179 190 209 220 244 259 257 280 290 295 299 282 193 238 279 307 330 349 350 332 342 26 47
167 165 168 182 191 192 195 192 173 167 170 178 182 183 185 186 184 187 189 189 193 202 213 219 233 245 253 255 255 262 288 292 287 281 299 320 337 351 332 335 355 352 280
185 183 192 203 204 195 199 191 178 175 181 187 189 191 195 195 196 200 206 205 208 203 206 214 214 216 238 244 232 220 222 222 237 235 191 272 310 313 309 302 296 292 300
194 202 212 218 213 200 202 195 186 184 188 194 197 198 198 199 200 203 223 234 226 234 234 225 216 224 234 248 249 251 257 261 260 230 196 244 253 260 268 275 280 275 269
Height
1518 1520 1521 1523 1525 1527 1529 1531 1533 1534 1536 1538 1539 1541 1542 1543 1544 1545 1546 1547 1547 1548 1548 1548 1548 1548 1548 1548 1549 1548 1548 1547 1547 1546 1544 1543 1543 1543 1543 1544 1544 1544 1544
1515 1517 1519 1520 1522 1524 1526 1528 1530 1532 1534 1535 1537 1538 1539 1540 1541 1542 1542 1542 1543 1543 1543 1543 1543 1543 1543 1543 1543 1543 1542 1541 1542 1541 1539 1537 1536 1535 1536 1537 1537 1537 1538
1511 1513 1515 1517 1519 1521 1523 1525 1526 1528 1530 1532 1533 1534 1535 1536 1537 1537 1537 1538 1538 1538 1537 1537 1537 1537 1537 1536 1537 1537 1536 1536 1536 1536 1536 1533 1529 1529 1530 1530 1531 1532 1532
1507 1509 1512 1514 1516 1518 1519 1521 1523 1525 1526 1528 1529 1530 1530 1531 1531 1532 1532 1532 1532 1532 1531 1531 1531 1530 1530 1530 1530 1531 1530 1530 1529 1529 1529 1529 1527 1526 1523 1524 1526 1526 1526
1503 1506 1508 1511 1513 1514 1516 1518 1519 1521 1522 1523 1524 1525 1525 1526 1526 1526 1526 1526 1526 1526 1525 1525 1524 1524 1523 1523 1523 1523 1523 1523 1523 1523 1523 1522 1522 1521 1520 1517 1519 1520 1520
1498 1501 1504 1507 1509 1511 1513 1515 1516 1517 1518 1519 1519 1520 1520 1520 1521 1520 1520 1520 1520 1519 1519 1518 1518 1517 1517 1517 1516 1516 1516 1516 1516 1516 1516 1516 1516 1516 1515 1513 1512 1512 1514
1492 1496 1499 1502 1505 1508 1510 1512 1513 1514 1514 1515 1515 1516 1516 1516 1516 1515 1515 1515 1514 1514 1513 1512 1512 1511 1511 1510 1510 1510 1510 1510 1510 1510 1510 1510 1510 1511 1510 1509 1507 1506 1506
1486 1490 1495 1499 1502 1505 1507 1509 1510 1511 1511 1511 1512 1512 1511 1511 1511 1511 1510 1510 1509 1508 1508 1507 1507 1506 1506 1505 1505 1504 1504 1504 1504 1504 1504 1504 1505 1505 1504 1504 1503 1501 1501
1483 1487 1492 1496 1500 1502 1505 1506 1507 1508 1508 1508 1508 1508 1507 1507 1507 1506 1506 1505 1505 1504 1503 1503 1502 1502 1501 1501 1500 1499 1499 1499 1499 1499 1499 1499 1499 1499 1499 1499 1499 1498 1496
1482 1487 1491 1495 1498 1500 1502 1503 1504 1504 1504 1504 1504 1504 1503 1503 1503 1502 1502 1501 1501 1500 1500 1499 1498 1498 1497 1497 1496 1495 1495 1495 1495 1494 1494 1494 1494 1494 1494 1494 1494 1493 1493
1481 1486 1490 1494 1496 1498 1500 1500 1501 1501 1501 1501 1500 1500 1500 1499 1499 1499 1498 1498 1497 1497 1496 1495 1495 1494 1494 1493 1492 1492 1491 1491 1491 1490 1490 1490 1490 1490 1489 1489 1489 1489 1488
1482 1486 1489 1492 1494 1496 1497 1497 1498 1498 1498 1497 1497 1497 1496 1496 1496 1495 1495 1494 1494 1493 1493 1492 1492 1491 1490 1490 1489 1489 1488 1488 1487 1487 1487 1487 1486 1486 1486 1485 1485 1485 1484
1482 1485 1487 1489 1491 1493 1494 1494 1494 1494 1494 1494 1493 1493 1493 1493 1493 1492 1492 1491 1491 1490 1490 1489 1489 1488 1488 1487 1486 1486 1485 1485 1485 1484 1484 1484 1483 1483 1483 1482 1482 1481 1481
1480 1482 1485 1487 1488 1490 1490 1491 1491 1491 1491 1490 1490 1490 1490 1489 1489 1489 1489 1488 1488 1488 1487 1487 1486 1486 1485 1485 1484 1483 1483 1483 1482 1482 1482 1482 1481 1481 1480 1480 1479 1479 1478
1477 1479 1481 1483 1485 1486 1487 1488 1488 1488 1487 1487 1487 1486 1486 1486 1486 1486 1486 1486 1486 1485 1485 1485 1484 1484 1484 1483 1483 1482 1482 1481 1481 1481 1481 1480 1480 1479 1479 1479 1478 1478 1477
1474 1476 1478 1480 1481 1482 1483 1484 1484 1484 1484 1483 1483 1483 1483 1484 1484 1484 1484 1484 1484 1484 1483 1483 1483 1483 1483 1482 1482 1482 1481 1481 1480 1480 1480 1479 1479 1478 1478 1477 1476 1476 1475
1470 1472 1474 1476 1477 1479 1480 1481 1481 1481 1481 1480 1480 1481 1481 1481 1482 1482 1482 1483 1483 1483 1483 1483 1483 1482 1482 1482 1482 1481 1481 1480 1480 1479 1479 1478 1478 1477 1476 1475 1474 1474 1472
1466 1468 1471 1472 1474 1475 1476 1477 1477 1478 1478 1478 1478 1478 1479 1479 1480 1481 1481 1482 1482 1482 1483 1483 1482 1482 1482 1482 1482 1481 1481 1480 1479 1478 1477 1477 1476 1475 1474 1473 1472 1471 1470
1463 1465 1467 1469 1470 1472 1473 1474 1474 1475 1475 1475 1476 1476 1477 1478 1479 1480 1481 1481 1482 1482 1482 1482 1482 1482 1482 1482 1481 1481 1480 1479 1478 1477 1476 1475 1474 1473 1472 1471 1470 1469 1468
1459 1461 1463 1465 1467 1468 1469 1470 1471 1472 1473 1473 1474 1475 1476 1477 1478 1479 1480 1480 1481 1482 1482 1482 1482 1482 1481 1481 1480 1480 1479 1478 1476 1475 1474 1473 1472 1471 1470 1469 1468 1467 1466
1457 1459 1460 1462 1464 1465 1467 1468 1469 1470 1471 1472 1472 1473 1475 1476 1477 1478 1479 1480 1480 1481 1481 1481 1481 1481 1480 1480 1479 1478 1477 1476 1475 1473 1472 1471 1470 1469 1468 1467 1466 1465 1464
1455 1457 1459 1460 1462 1463 1464 1465 1467 1468 1469 1470 1471 1472 1473 1475 1476 1477 1478 1478 1479 1479 1480 1480 1480 1480 1479 1478 1477 1476 1475 1474 1473 1471 1470 1469 1468 1467 1466 1465 1464 1463 1462
1454 1456 1457 1458 1459 1461 1462 1463 1465 1466 1467 1468 1469 1471 1472 1473 1474 1475 1476 1477 1477 1478 1478 1478 1478 1478 1477 1476 1475 1474 1473 1471 1470 1469 1468 1467 1465 1464 1463 1462 1461 1460 1459
1453 1454 1455 1456 1457 1458 1459 1461 1462 1463 1465 1466 1467 1469 1470 1471 1472 1473 1474 1475 1475 1476 1476 1476 1476 1475 1475 1474 1473 1471 1470 1469 1468 1466 1465 1464 1463 1462 1461 1460 1459 1458 1456
1452 1452 1453 1454 1454 1455 1456 1457 1459 1460 1461 1463 1464 1466 1467 1468 1469 1470 1471 1472 1473 1473 1473 1473 1473 1472 1472 1471 1470 1469 1467 1466 1465 1463 1462 1461 1460 1459 1458 1457 1455 1454 1453
1450 1450 1450 1451 1451 1452 1453 1454 1455 1456 1457 1459 1460 1462 1463 1465 1466 1467 1468 1468 1469 1470 1469 1469 1469 1469 1468 1467 1466 1465 1464 1463 1461 1460 1459 1458 1457 1455 1454 1453 1452 1451 1450